Regional Weather Roundup
Issued by NWS

Home | Current Version | Previous Version | Text Only | Print | Product List | Glossary On
Versions: 1 2 3 4 5 6 7 8 9 10 11 12 13 14 15 16 17 18 19 20 21 22 23 24 25 26 27 28 29 30 31 32 33 34 35 36 37 38 39 40 41 42 43 44 45 46 47 48 49 50
000
ASUS43 KDMX 051307
RWRIA

WEATHER ROUNDUP FOR IOWA
NATIONAL WEATHER SERVICE DES MOINES IA
800 AM CDT TUE MAY 05 2015

NOTE: "FAIR" INDICATES FEW OR NO CLOUDS BELOW 12,000 FEET WITH NO
SIGNIFICANT WEATHER AND/OR OBSTRUCTIONS TO VISIBILITY.

* - THESE STATIONS ARE NOT NWS STATIONS...THUS NOT UNDER NWS
QUALITY CONTROL.  THEY ALSO DO NOT REPORT WEATHER SUCH
AS PRECIPITATION OR FOG.

IAZ001>003-012>014-020>022-031>034-043>046-051400-
   NORTHWEST IOWA

CITY           SKY/WX    TMP DP  RH WIND       PRES   REMARKS
CARROLL *      FOG       59  59 100 CALM      30.09R VSB 1
CHEROKEE *     CLOUDY    54  48  82 E7        30.10R
DENISON *      FOG       55  55 100 CALM      30.07S VSB 1
LE MARS *      CLOUDY    57  46  67 CALM      30.10S
ORANGE CITY *  PTSUNNY   57  39  51 E8        30.09S
SHELDON *      CLOUDY    57  39  51 E12       30.09S
SIOUX CITY     CLOUDY    55  51  86 E9        30.08S
SPENCER        CLOUDY    55  48  77 E13       30.11S
STORM LAKE *   CLOUDY    52  50  93 E10       30.10R FOG
$$

IAZ055>058-069>071-079>083-090>094-051400-
   SOUTHWEST IOWA

CITY           SKY/WX    TMP DP  RH WIND       PRES   REMARKS
ATLANTIC *     CLOUDY    63  63 100 S10       30.10R
AUDUBON *      PTSUNNY   61  57  88 S7        30.10R FOG
CLARINDA *     CLOUDY    61  61 100 S3        30.12R
COUNCIL BLFS * CLOUDY    61  61 100 SE7       30.09R
CRESTON *      CLOUDY    61  61 100 SE6       30.12R
HARLAN  *      PTSUNNY   61  61 100 S9        30.12R
LAMONI         MOSUNNY   62  60  93 SE7       30.12S
RED OAK *      CLOUDY    61  61 100 CALM      30.10R
SHENANDOAH *   CLOUDY    61  61 100 SE3       30.10R
$$

IAZ047>049-059>061-072>074-084-051400-
   CENTRAL IOWA

CITY           SKY/WX    TMP DP  RH WIND       PRES   REMARKS
AMES           CLOUDY    61  59  93 SE5       30.09R FOG
ANKENY *       CLOUDY    63  63 100 S8        30.10R FOG
CHARITON *     PTSUNNY   61  61 100 S8        30.12R
DES MOINES     LGT RAIN  63  60  90 S10       30.10S FOG
GRINNELL*      CLOUDY    59  59 100 CALM      30.12R FOG
KNOXVILLE *    MOSUNNY   61  59  94 SW10      30.11R
MARSHALLTOWN   LGT RAIN  60  58  92 SE7       30.09S FOG
PELLA *        PTSUNNY   61  61 100 SW6       30.13R
PERRY *        FOG       61  61 100 S8        30.09S VSB 1/4
$$

IAZ004>006-015-016-023>025-035-036-051400-
   NORTH CENTRAL IOWA

CITY           SKY/WX    TMP DP  RH WIND       PRES   REMARKS
ALGONA *       DRIZZLE   55  52  88 E12G17    30.12R
CLARION *      CLOUDY    55  55 100 E13       30.11S
ESTHERVILLE    CLOUDY    51  49  92 NE12      30.12S
FORT DODGE *   CLOUDY    55  52  88 E8        30.11R
MASON CITY     LGT RAIN  56  53  90 E16       30.15R
FOREST CITY *  LGT RAIN  54  50  87 E10       30.13S
IOWA FALLS *   CLOUDY    57  55  94 NE6       30.12R FOG
$$

IAZ007>011-017>019-026>030-037>042-050>054-066-051400-
   NORTHEAST IOWA

CITY           SKY/WX    TMP DP  RH WIND       PRES   REMARKS
CEDAR RAPIDS   LGT RAIN  62  62 100 SE5       30.13R FOG
CHARLES CITY * CLOUDY    54  54 100 E16G26    30.16R FOG
CLINTON *      CLOUDY    57  54  88 E10       30.20R
DECORAH *      CLOUDY    52  48  87 E15       30.18S
DUBUQUE        LGT RAIN  52  52 100 NE8       30.18R FOG
MONTICELLO *   CLOUDY    57  57 100 E5        30.17R
OELWEIN *      CLOUDY    52  52 100 E18       30.16R FOG
WATERLOO       CLOUDY    61  59  93 E8        30.12R
$$

IAZ064-065-067-068-078-051400-
   EAST CENTRAL IOWA

CITY           SKY/WX    TMP DP  RH WIND       PRES   REMARKS
DAVENPORT      CLOUDY    58  56  93 SE8       30.17R FOG
IOWA CITY      CLOUDY    63  62  97 SE5       30.15R FOG
MT. PLEASANT * CLOUDY    61  61 100 S6        30.15S FOG
MUSCATINE *    CLOUDY    64  63  94 S6        30.15R
QUAD CITIES    CLOUDY    59  56  89 E6        30.16R FOG
$$

IAZ062-063-075>077-085>089-095>099-051400-
   SOUTHEAST IOWA

CITY           SKY/WX    TMP DP  RH WIND       PRES   REMARKS
BURLINGTON     CLOUDY    63  62  97 S6        30.15R
FAIRFIELD *    SUNNY     63  61  94 S8        30.13S FOG
FORT MADISON *   N/A     63  63 100 CALM      30.16R
KEOKUK *       PTSUNNY   63  63 100 SE8       30.14S
OSKALOOSA *      N/A     61  61 100 S7        30.12R
CENTERVILLE *  MOSUNNY   61  61 100 SE6       30.15R
OTTUMWA        FOG       61  61 100 S9        30.11S VSB 3/4
WASHINGTON *   CLOUDY    63  63 100 S8        30.14R FOG
$$

ABBREVIATIONS USED IN REMARKS
   TC - TEMPERATURES IN CELSIUS
  WCI - WIND CHILL INDEX
   HX - HEAT INDEX
  VSB - VISIBILITY
$$



USA.gov is the U.S. government's official web portal to all federal, state and local government web resources and services.